1500429600.81,37385,17.56,74540.5,5.23,-1.79,-1.71,0,*7B
1500429602.02,37386,17.56,74546.0,5.23,-1.87,-1.79,0,*71
1500429603.23,37387,17.56,74544.5,5.23,-1.91,-1.79,0,*77
1500429604.45,37388,17.56,74542.0,5.23,-1.87,-1.71,0,*77
1500429605.66,37389,17.56,74544.3,5.23,-1.83,-1.75,0,*76
1500429606.85,37390,17.56,74540.8,5.25,-1.75,-1.67,0,*72
1500429608.07,37391,17.56,74542.0,5.25,-1.83,-1.67,0,*7A
1500429609.29,37392,17.56,74546.3,5.25,-1.83,-1.55,0,*78
1500429610.51,37393,17.56,74546.5,5.23,-1.87,-1.71,0,*7D
1500429611.72,37394,17.56,74546.0,5.23,-1.87,-1.71,0,*7A
1500429612.94,37395,17.56,74546.5,5.25,-1.83,-1.59,0,*73
1500429614.16,37396,17.56,74544.5,5.25,-1.83,-1.71,0,*7A
1500429615.35,37397,17.56,74542.0,5.25,-1.75,-1.67,0,*75
1500429616.56,37398,17.56,74542.5,5.23,-1.87,-1.71,0,*76
1500429617.77,37399,17.56,74542.0,5.23,-1.87,-1.59,0,*7D
1500429618.96,37400,17.56,74542.5,5.25,-1.79,-1.59,0,*7D
1500429620.14,37401,17.56,74540.5,5.23,-1.75,-1.55,0,*7A
1500429621.32,37402,17.56,74540.5,5.23,-1.75,-1.55,0,*79
1500429622.54,37403,17.56,74542.5,5.25,-1.83,-1.59,0,*7B
1500429623.74,37404,17.56,74544.5,5.23,-1.87,-1.59,0,*7E
1500429624.93,37405,17.56,74544.0,5.25,-1.75,-1.55,0,*78
1500429626.11,37406,17.56,74544.0,5.23,-1.79,-1.63,0,*74
1500429627.34,37407,17.56,74544.8,5.25,-1.83,-1.71,0,*75
1500429628.55,37408,17.56,74540.5,5.25,-1.83,-1.59,0,*70
1500429629.76,37409,17.56,74542.8,5.23,-1.87,-1.63,0,*7A
1500429630.98,37410,17.56,74546.0,5.25,-1.83,-1.59,0,*79
1500429632.19,37411,17.56,74542.8,5.25,-1.83,-1.59,0,*78
1500429633.4,37412,17.56,74546.3,5.25,-1.83,-1.55,0,*77
1500429634.62,37413,17.56,74542.8,5.25,-1.83,-1.55,0,*76
1500429635.83,37414,17.56,74540.3,5.23,-1.83,-1.59,0,*7B
1500429637.01,37415,17.56,74544.8,5.25,-1.75,-1.55,0,*79
1500429638.23,37416,17.56,74544.5,5.25,-1.83,-1.55,0,*73
1500429639.41,37417,17.56,74544.5,5.23,-1.79,-1.59,0,*7D
1500429640.62,37418,17.56,74542.8,5.23,-1.87,-1.59,0,*73
1500429641.83,37419,17.56,74544.3,5.25,-1.83,-1.59,0,*70
1500429643.04,37420,17.56,74546.5,5.25,-1.87,-1.55,0,*72
1500429644.26,37421,17.56,74546.0,5.25,-1.87,-1.55,0,*73
1500429645.47,37422,17.56,74540.8,5.25,-1.87,-1.55,0,*70
1500429646.68,37423,17.56,74544.8,5.25,-1.83,-1.59,0,*79
1500429647.9,37424,17.56,74542.0,5.25,-1.83,-1.55,0,*72
1500429649.11,37425,17.56,74542.8,5.23,-1.87,-1.59,0,*7D
1500429650.32,37426,17.56,74544.8,5.23,-1.87,-1.59,0,*7E
1500429651.5,37427,17.56,74542.8,5.25,-1.75,-1.55,0,*78
1500429652.71,37428,17.56,74546.0,5.23,-1.87,-1.59,0,*70
1500429653.93,37429,17.56,74544.3,5.25,-1.83,-1.55,0,*7F
1500429655.14,37430,17.56,74538.8,5.25,-1.83,-1.55,0,*77
1500429656.36,37431,17.56,74546.0,5.25,-1.83,-1.67,0,*77
1500429657.57,37432,17.56,74540.5,5.25,-1.87,-1.59,0,*7D
1500429658.79,37433,17.56,74542.3,5.25,-1.83,-1.55,0,*74
1500429660.0,37434,17.56,74544.3,5.25,-1.83,-1.55,0,*73
1500429661.21,37435,17.56,74544.5,5.25,-1.83,-1.55,0,*72
1500429662.43,37436,17.56,74544.5,5.25,-1.83,-1.59,0,*7D
1500429663.64,37437,17.56,74544.3,5.25,-1.87,-1.55,0,*74
1500429664.85,37438,17.56,74540.0,5.25,-1.87,-1.59,0,*77
1500429666.06,37439,17.56,74546.0,5.23,-1.91,-1.59,0,*77
1500429667.3,37440,17.56,74542.8,5.25,-1.87,-1.47,0,*77
1500429668.55,37441,17.56,74546.8,5.25,-1.83,-1.47,0,*72
1500429669.76,37442,17.56,74544.5,5.25,-1.75,-1.47,0,*78
1500429670.94,37443,17.56,74540.3,5.29,-1.79,-1.51,0,*7E
1500429672.16,37444,17.56,74544.8,5.25,-1.83,-1.55,0,*74
1500429673.37,37445,17.56,74540.8,5.25,-1.83,-1.59,0,*79
1500429674.58,37446,17.56,74540.5,5.25,-1.83,-1.59,0,*7A
1500429675.83,37447,17.56,74544.5,5.25,-1.83,-1.47,0,*74
1500429677.04,37448,17.56,74546.0,5.25,-1.87,-1.55,0,*7C
1500429678.26,37449,17.56,74544.3,5.25,-1.87,-1.55,0,*7D
1500429679.47,37450,17.56,74546.0,5.25,-1.87,-1.55,0,*75
1500429680.68,37451,17.56,74542.0,5.25,-1.95,-1.55,0,*77
1500429681.92,37452,17.56,74546.8,5.25,-1.87,-1.47,0,*74
1500429683.16,37453,17.56,74544.5,5.29,-1.83,-1.43,0,*79
1500429684.4,37454,17.56,74542.8,5.29,-1.83,-1.43,0,*7E
1500429685.61,37455,17.56,74546.5,5.29,-1.83,-1.51,0,*7C
1500429686.83,37456,17.56,74546.3,5.25,-1.87,-1.59,0,*7F
1500429688.07,37457,17.56,74542.0,5.25,-1.87,-1.47,0,*71
1500429689.28,37458,17.56,74544.5,5.29,-1.83,-1.55,0,*75
1500429690.49,37459,17.56,74544.5,5.29,-1.83,-1.51,0,*70
1500429691.71,37460,17.56,74546.3,5.29,-1.83,-1.51,0,*7A
1500429692.92,37461,17.56,74544.3,5.29,-1.83,-1.51,0,*7B
1500429694.13,37462,17.56,74544.0,5.29,-1.83,-1.51,0,*78
1500429695.34,37463,17.56,74546.8,5.29,-1.83,-1.51,0,*79
1500429696.56,37464,17.56,74546.3,5.29,-1.83,-1.51,0,*7E
1500429697.77,37465,17.56,74544.0,5.25,-1.87,-1.55,0,*73
1500429698.98,37466,17.56,74544.5,5.25,-1.95,-1.55,0,*73
1500429700.22,37467,17.56,74542.8,5.25,-1.95,-1.47,0,*71
1500429701.43,37468,17.56,74546.0,5.25,-1.87,-1.55,0,*7E
1500429702.68,37469,17.56,74542.0,5.25,-1.87,-1.47,0,*7C
1500429703.92,37470,17.56,74546.0,5.29,-1.83,-1.43,0,*78
1500429705.15,37471,17.56,74540.5,5.29,-1.83,-1.43,0,*79
1500429706.39,37472,17.56,74546.0,5.29,-1.83,-1.43,0,*7A
1500429707.61,37473,17.56,74546.8,5.29,-1.83,-1.51,0,*78
1500429708.82,37474,17.56,74540.5,5.29,-1.83,-1.51,0,*7F
1500429710.06,37475,17.56,74544.0,5.25,-1.87,-1.47,0,*71
1500429711.3,37476,17.56,74544.8,5.29,-1.83,-1.43,0,*7E
1500429712.54,37477,17.56,74546.0,5.29,-1.91,-1.43,0,*7C
1500429713.77,37478,17.56,74542.0,5.29,-1.83,-1.43,0,*70
1500429714.99,37479,17.56,74540.8,5.25,-1.87,-1.55,0,*7E
1500429716.2,37480,17.56,74544.5,5.29,-1.91,-1.51,0,*77
1500429717.44,37481,17.56,74546.8,5.29,-1.83,-1.43,0,*76
1500429718.67,37482,17.56,74544.0,5.29,-1.91,-1.43,0,*76
1500429719.91,37483,17.56,74544.8,5.29,-1.91,-1.43,0,*77
1500429721.12,37484,17.56,74544.5,5.29,-1.91,-1.55,0,*77
1500429722.35,37485,17.56,74544.5,5.31,-1.91,-1.51,0,*7B
1500429723.59,37486,17.63,74544.5,5.29,-1.83,-1.43,0,*71
1500429724.83,37487,17.56,74542.3,5.31,-1.83,-1.51,0,*7A
1500429726.1,37488,17.56,74546.0,5.31,-1.83,-1.43,0,*76
1500429727.34,37489,17.56,74544.5,5.29,-1.83,-1.43,0,*7E
1500429728.6,37490,17.56,74544.0,5.31,-1.83,-1.43,0,*7F
1500429729.81,37491,17.56,74546.8,5.29,-1.83,-1.55,0,*70
1500429731.02,37492,17.56,74546.0,5.29,-1.91,-1.55,0,*70
1500429732.23,37493,17.56,74546.3,5.29,-1.95,-1.51,0,*71
1500429733.44,37494,17.56,74544.3,5.29,-1.91,-1.51,0,*72
1500429734.65,37495,17.56,74544.0,5.29,-1.91,-1.51,0,*73
1500429735.88,37496,17.56,74544.0,5.29,-1.91,-1.43,0,*73
1500429737.12,37497,17.56,74540.5,5.29,-1.91,-1.39,0,*7F
1500429738.33,37498,17.56,74542.8,5.29,-1.91,-1.51,0,*7E
1500429739.59,37499,17.56,74544.3,5.31,-1.91,-1.43,0,*75
1500429740.8,37500,17.56,74544.8,5.29,-1.91,-1.51,0,*7E
1500429742.04,37501,17.56,74544.5,5.29,-1.95,-1.43,0,*78
1500429743.24,37502,17.56,74540.8,5.29,-1.91,-1.55,0,*78
1500429744.48,37503,17.56,74544.3,5.29,-1.91,-1.43,0,*7E
1500429745.71,37504,17.56,74544.8,5.29,-1.91,-1.43,0,*79
1500429746.95,37505,17.56,74544.5,5.29,-1.91,-1.39,0,*75
1500429748.19,37506,17.56,74542.3,5.29,-1.91,-1.43,0,*7B
1500429749.43,37507,17.56,74542.0,5.29,-1.83,-1.43,0,*79
1500429750.66,37508,17.56,74542.5,5.29,-1.83,-1.43,0,*76
1500429751.87,37509,17.56,74540.8,5.29,-1.91,-1.51,0,*77
1500429753.08,37510,17.56,74544.0,5.29,-1.95,-1.51,0,*7B
1500429754.29,37511,17.56,74540.8,5.29,-1.91,-1.51,0,*7E
1500429755.53,37512,17.56,74542.3,5.29,-1.95,-1.43,0,*7A
1500429756.77,37513,17.56,74544.3,5.29,-1.83,-1.39,0,*71
1500429758.01,37514,17.56,74542.0,5.29,-1.83,-1.43,0,*7B
1500429759.25,37515,17.56,74542.8,5.29,-1.83,-1.39,0,*77
1500429760.51,37516,17.56,74546.8,5.31,-1.83,-1.43,0,*70
1500429761.75,37517,17.56,74544.0,5.29,-1.91,-1.43,0,*7B
1500429762.99,37518,17.56,74546.8,5.29,-1.83,-1.43,0,*77
1500429764.22,37519,17.56,74544.3,5.29,-1.83,-1.39,0,*7B
1500429765.46,37520,17.56,74540.8,5.29,-1.91,-1.43,0,*7F
1500429766.7,37521,17.56,74542.5,5.29,-1.91,-1.39,0,*73
1500429767.96,37522,17.56,74542.0,5.31,-1.83,-1.43,0,*77
1500429769.22,37523,17.56,74542.0,5.31,-1.91,-1.39,0,*78
1500429770.46,37524,17.56,74540.5,5.29,-1.83,-1.39,0,*75
1500429771.73,37525,17.56,74540.5,5.31,-1.83,-1.39,0,*7D
1500429772.94,37526,17.56,74546.3,5.29,-1.83,-1.33,0,*7D
1500429774.2,37527,17.56,74542.5,5.31,-1.91,-1.39,0,*7C
1500429775.44,37528,17.56,74546.5,5.29,-1.83,-1.39,0,*79
1500429776.68,37529,17.56,74542.8,5.31,-1.83,-1.33,0,*7B
1500429777.92,37530,17.56,74546.5,5.29,-1.91,-1.43,0,*7E
1500429779.18,37531,17.56,74540.8,5.31,-1.91,-1.39,0,*7B
1500429780.45,37532,17.56,74542.5,5.31,-1.83,-1.39,0,*7B
1500429781.68,37533,17.56,74542.8,5.29,-1.83,-1.43,0,*7E
1500429782.95,37534,17.56,74540.0,5.31,-1.83,-1.39,0,*7D
1500429784.21,37535,17.56,74544.0,5.31,-1.91,-1.39,0,*7F
1500429785.42,37536,17.56,74542.8,5.29,-1.83,-1.33,0,*7C
1500429786.66,37537,17.56,74542.8,5.31,-1.83,-1.33,0,*74
1500429787.92,37538,17.56,74546.3,5.31,-1.91,-1.39,0,*72
1500429789.16,37539,17.56,74546.5,5.29,-1.83,-1.39,0,*79
1500429790.4,37540,17.56,74544.3,5.31,-1.83,-1.33,0,*74
1500429791.61,37541,17.56,74542.5,5.29,-1.83,-1.33,0,*7C
1500429792.79,37542,17.56,74546.3,5.29,-1.79,-1.33,0,*7A
1500429794.03,37543,17.56,74544.0,5.29,-1.83,-1.39,0,*74
1500429795.27,37544,17.56,74542.0,5.31,-1.83,-1.33,0,*70
1500429796.5,37545,17.56,74544.3,5.31,-1.83,-1.33,0,*71
1500429797.68,37546,17.56,74544.3,5.29,-1.79,-1.33,0,*7E
1500429798.9,37547,17.56,74540.5,5.29,-1.83,-1.33,0,*7A
1500429800.11,37548,17.56,74546.8,5.29,-1.83,-1.29,0,*7E
1500429801.32,37549,17.56,74542.3,5.29,-1.91,-1.29,0,*7C
1500429802.53,37550,17.56,74540.5,5.29,-1.83,-1.29,0,*77
1500429803.77,37551,17.56,74542.3,5.31,-1.83,-1.29,0,*7F
1500429804.98,37552,17.56,74542.0,5.31,-1.79,-1.29,0,*79
1500429806.16,37553,17.56,74542.8,5.29,-1.79,-1.29,0,*71
1500429807.35,37554,17.56,74544.5,5.29,-1.79,-1.21,0,*7E
1500429808.59,37555,17.56,74540.8,5.31,-1.83,-1.29,0,*7B
1500429809.8,37556,17.56,74542.3,5.29,-1.83,-1.29,0,*71
1500429811.04,37557,17.56,74544.5,5.31,-1.83,-1.29,0,*79
1500429812.25,37558,17.56,74542.3,5.29,-1.83,-1.29,0,*7F
1500429813.49,37559,17.56,74542.0,5.31,-1.83,-1.29,0,*77
1500429814.73,37560,17.56,74542.3,5.31,-1.83,-1.29,0,*7D
1500429815.94,37561,17.56,74540.3,5.29,-1.83,-1.29,0,*75
1500429817.15,37562,17.56,74544.5,5.29,-1.83,-1.17,0,*7B
1500429818.36,37563,17.56,74544.3,5.31,-1.79,-1.21,0,*73
1500429819.55,37564,17.56,74542.0,5.29,-1.79,-1.21,0,*7D
1500429820.74,37565,17.56,74544.5,5.29,-1.79,-1.21,0,*7C
1500429821.92,37566,17.56,74540.5,5.29,-1.79,-1.21,0,*7F
1500429823.11,37567,17.56,74546.0,5.29,-1.79,-1.21,0,*7E
1500429824.3,37568,17.56,74542.8,5.29,-1.79,-1.21,0,*71
1500429825.51,37569,17.56,74542.8,5.31,-1.79,-1.21,0,*79
1500429826.75,37570,17.56,74542.3,5.31,-1.83,-1.21,0,*74
1500429827.94,37571,17.56,74540.5,5.29,-1.79,-1.21,0,*79
1500429829.13,37572,17.56,74544.0,5.29,-1.79,-1.21,0,*7A
1500429830.31,37573,17.56,74542.8,5.29,-1.79,-1.17,0,*7E
1500429831.5,37574,17.56,74546.3,5.29,-1.71,-1.17,0,*71
1500429832.72,37575,17.56,74544.3,5.31,-1.71,-1.17,0,*79
1500429833.93,37576,17.56,74540.3,5.31,-1.79,-1.17,0,*72
1500429835.14,37577,17.56,74546.8,5.31,-1.79,-1.17,0,*73
1500429836.36,37578,17.56,74542.5,5.31,-1.71,-1.17,0,*74
1500429837.55,37579,17.56,74548.3,5.29,-1.71,-1.17,0,*7C
1500429838.79,37580,17.56,74544.3,5.31,-1.71,-1.09,0,*7C
1500429840.0,37581,17.56,74544.0,5.31,-1.71,-1.17,0,*72
1500429841.22,37582,17.56,74542.8,5.29,-1.71,-1.09,0,*77
1500429842.45,37583,17.56,74546.8,5.31,-1.71,-1.09,0,*7F
1500429843.69,37584,17.56,74542.3,5.31,-1.79,-1.09,0,*70
1500429844.89,37585,17.56,74542.8,5.29,-1.67,-1.09,0,*77
1500429846.1,37586,17.56,74540.0,5.29,-1.63,-1.05,0,*7C
1500429847.34,37587,17.56,74546.5,5.31,-1.63,-1.05,0,*74
1500429848.58,37588,17.56,74546.8,5.31,-1.67,-1.05,0,*7F
1500429849.82,37589,17.56,74542.8,5.31,-1.71,-1.05,0,*79
1500429851.06,37590,17.56,74544.8,5.31,-1.67,-1.05,0,*76
1500429852.27,37591,17.56,74544.3,5.29,-1.63,-1.05,0,*7A
1500429853.51,37592,17.56,74546.0,5.31,-1.71,-1.09,0,*7F
1500429854.74,37593,17.56,74546.8,5.31,-1.79,-1.05,0,*7A
1500429855.97,37594,17.56,74542.0,5.31,-1.79,-1.09,0,*71
1500429857.21,37595,17.56,74542.5,5.31,-1.71,-1.09,0,*78
1500429858.45,37596,17.56,74544.8,5.31,-1.67,-1.05,0,*70
1500429859.69,37597,17.56,74544.5,5.31,-1.67,-1.05,0,*71
1500429860.9,37598,17.56,74544.3,5.29,-1.63,-1.05,0,*73
1500429862.11,37599,17.56,74544.0,5.29,-1.63,-1.05,0,*72
1500429863.34,37600,17.56,74544.5,5.31,-1.63,-1.05,0,*78
1500429864.57,37601,17.56,74542.8,5.31,-1.67,-0.97,0,*47
1500429865.81,37602,17.56,74544.5,5.31,-1.67,-1.05,0,*7E
1500429867.05,37603,17.56,74542.5,5.31,-1.67,-1.05,0,*7F
1500429868.28,37604,17.56,74546.5,5.31,-1.63,-1.09,0,*70
1500429869.51,37605,17.56,74544.0,5.31,-1.67,-1.05,0,*79
1500429870.74,37606,17.56,74542.8,5.31,-1.55,-0.97,0,*41
1500429871.95,37607,17.56,74542.8,5.29,-1.63,-1.05,0,*76
1500429873.18,37608,17.56,74542.3,5.31,-1.55,-0.93,0,*4B
1500429874.38,37609,17.56,74540.8,5.29,-1.55,-0.93,0,*43
1500429875.6,37610,17.56,74542.3,5.31,-1.55,-0.93,0,*42
1500429876.83,37611,17.56,74544.5,5.31,-1.55,-0.97,0,*47
1500429878.03,37612,17.56,74540.5,5.29,-1.67,-0.97,0,*4C
1500429879.26,37613,17.56,74542.3,5.31,-1.63,-0.97,0,*40
1500429880.46,37614,17.56,74540.3,5.29,-1.63,-0.97,0,*4E
1500429881.69,37615,17.56,74544.5,5.31,-1.63,-0.97,0,*46
1500429882.91,37616,17.56,74546.3,5.31,-1.55,-0.93,0,*44
1500429884.14,37617,17.56,74544.0,5.31,-1.55,-0.93,0,*45
1500429885.36,37618,17.56,74540.5,5.31,-1.51,-0.93,0,*4E
1500429886.56,37619,17.56,74542.8,5.29,-1.51,-0.97,0,*42
1500429887.76,37620,17.56,74540.8,5.29,-1.51,-0.93,0,*4C
1500429888.98,37621,17.56,74546.3,5.31,-1.51,-0.93,0,*44
1500429890.18,37622,17.56,74546.3,5.29,-1.51,-0.93,0,*4E
1500429891.37,37623,17.56,74544.5,5.29,-1.51,-0.93,0,*4F
1500429892.6,37624,17.56,74546.0,5.31,-1.55,-0.85,0,*42
1500429893.83,37625,17.56,74546.0,5.31,-1.51,-0.97,0,*44
1500429895.05,37626,17.56,74542.8,5.31,-1.55,-0.85,0,*40
1500429896.28,37627,17.56,74546.0,5.31,-1.51,-0.85,0,*45
1500429897.49,37628,17.56,74544.3,5.29,-1.43,-0.77,0,*4D
1500429898.7,37629,17.56,74546.5,5.33,-1.39,-0.81,0,*43
1500429899.95,37630,17.56,74546.0,5.31,-1.43,-0.93,0,*47
1500429901.21,37631,17.56,74544.8,5.31,-1.43,-0.85,0,*41
1500429902.45,37632,17.56,74544.3,5.31,-1.39,-0.77,0,*42
1500429903.71,37633,17.56,74544.8,5.31,-1.43,-0.85,0,*43
1500429904.96,37634,17.56,74542.8,5.31,-1.43,-0.85,0,*44
1500429906.2,37635,17.56,74544.3,5.31,-1.39,-0.77,0,*45
1500429907.44,37636,17.56,74540.5,5.31,-1.39,-0.77,0,*46
1500429908.68,37637,17.56,74540.5,5.31,-1.43,-0.77,0,*4A
1500429909.92,37638,17.56,74542.8,5.31,-1.43,-0.77,0,*45
1500429911.13,37639,17.56,74544.5,5.31,-1.33,-0.69,0,*4C
1500429912.37,37640,17.56,74544.5,5.31,-1.39,-0.77,0,*47
1500429913.58,37641,17.56,74544.3,5.31,-1.29,-0.69,0,*48
1500429914.79,37642,17.56,74546.3,5.31,-1.33,-0.69,0,*40
1500429916.03,37643,17.56,74546.3,5.31,-1.39,-0.69,0,*4B
1500429917.27,37644,17.56,74546.3,5.31,-1.43,-0.65,0,*4D
1500429918.48,37645,17.56,74544.5,5.31,-1.29,-0.69,0,*4C
1500429919.69,37646,17.56,74544.3,5.31,-1.33,-0.69,0,*44
1500429920.87,37647,17.56,74544.0,5.29,-1.29,-0.65,0,*4B
1500429922.05,37648,17.56,74542.8,5.29,-1.29,-0.69,0,*48
1500429923.26,37649,17.56,74542.3,5.31,-1.33,-0.65,0,*47
1500429924.47,37650,17.56,74542.8,5.31,-1.33,-0.69,0,*43
1500429925.66,37651,17.56,74546.3,5.29,-1.33,-0.65,0,*47
1500429926.87,37652,17.56,74542.5,5.31,-1.29,-0.65,0,*46
1500429928.07,37653,17.56,74542.5,5.31,-1.33,-0.65,0,*4C
1500429929.28,37654,17.56,74542.8,5.31,-1.29,-0.69,0,*4C
1500429930.5,37655,17.56,74546.3,5.31,-1.29,-0.57,0,*40
1500429931.71,37656,17.56,74540.0,5.31,-1.21,-0.65,0,*4A
1500429932.91,37657,17.56,74540.8,5.31,-1.29,-0.65,0,*43
1500429934.12,37658,17.56,74546.3,5.31,-1.33,-0.65,0,*47
1500429935.33,37659,17.56,74540.5,5.31,-1.29,-0.57,0,*4C
1500429936.52,37660,17.56,74542.0,5.29,-1.33,-0.65,0,*45
1500429937.72,37661,17.56,74546.3,5.31,-1.29,-0.65,0,*46
1500429938.93,37662,17.56,74542.5,5.31,-1.29,-0.65,0,*45
1500429940.14,37663,17.56,74544.0,5.31,-1.33,-0.69,0,*43
1500429941.33,37664,17.56,74536.8,5.29,-1.29,-0.65,0,*4A
1500429942.53,37665,17.56,74540.0,5.31,-1.21,-0.65,0,*4A
1500429943.75,37666,17.56,74544.8,5.31,-1.21,-0.53,0,*4C
1500429944.93,37667,17.56,74542.0,5.29,-1.17,-0.57,0,*45
1500429946.12,37668,17.56,74540.8,5.29,-1.21,-0.57,0,*4F
1500429947.33,37669,17.56,74540.8,5.31,-1.29,-0.65,0,*4E
1500429948.51,37670,17.56,74542.0,5.29,-1.17,-0.57,0,*43
1500429949.7,37671,17.56,74542.3,5.29,-1.17,-0.53,0,*46
1500429950.92,37672,17.56,74542.8,5.31,-1.17,-0.53,0,*4C
1500429952.1,37673,17.56,74542.8,5.29,-1.17,-0.57,0,*40
1500429953.29,37674,17.56,74546.3,5.29,-1.17,-0.53,0,*43
1500429954.48,37675,17.56,74542.3,5.29,-1.17,-0.53,0,*42
1500429955.69,37676,17.56,74542.8,5.31,-1.17,-0.57,0,*4C
1500429956.9,37677,17.56,74544.3,5.29,-1.09,-0.53,0,*4F
1500429958.13,37678,17.56,74540.3,5.31,-1.09,-0.41,0,*4A
1500429959.37,37679,17.56,74544.3,5.31,-1.09,-0.45,0,*4F
1500429960.58,37680,17.56,74542.3,5.29,-1.05,-0.45,0,*4C
1500429961.82,37681,17.56,74544.5,5.31,-1.05,-0.41,0,*40
1500429963.06,37682,17.56,74544.5,5.31,-1.05,-0.45,0,*47
1500429964.27,37683,17.56,74546.3,5.29,-1.09,-0.45,0,*43
1500429965.5,37684,17.56,74542.3,5.31,-1.05,-0.45,0,*41
1500429966.71,37685,17.56,74544.3,5.29,-1.09,-0.45,0,*45
1500429967.92,37686,17.56,74542.8,5.29,-1.05,-0.45,0,*4A
1500429969.16,37687,17.56,74542.3,5.31,-1.05,-0.45,0,*42
1500429970.38,37688,17.56,74542.5,5.29,-1.05,-0.41,0,*40
1500429971.58,37689,17.56,74546.3,5.29,-0.93,-0.45,0,*7B
1500429972.8,37690,17.56,74544.0,5.29,-1.05,-0.41,0,*49
1500429974.03,37691,17.56,74544.3,5.31,-0.93,-0.41,0,*7F
1500429975.23,37692,17.56,74544.0,5.29,-0.93,-0.45,0,*71
1500429976.43,37693,17.56,74546.0,5.29,-0.93,-0.41,0,*74
1500429977.66,37694,17.56,74540.8,5.31,-0.93,-0.45,0,*7E
1500429978.87,37695,17.56,74544.0,5.29,-0.93,-0.41,0,*72
1500429980.07,37696,17.56,74544.8,5.29,-0.93,-0.41,0,*71
1500429981.28,37697,17.56,74544.0,5.29,-0.93,-0.41,0,*70
1500429982.51,37698,17.56,74540.3,5.31,-0.85,-0.41,0,*71
1500429983.72,37699,17.56,74546.3,5.29,-0.85,-0.41,0,*79
1500429984.93,37700,17.56,74544.0,5.29,-0.93,-0.41,0,*7F
1500429986.14,37701,17.56,74542.5,5.29,-0.85,-0.41,0,*79
1500429987.35,37702,17.56,74536.8,5.29,-0.85,-0.41,0,*7A
1500429988.56,37703,17.56,74544.3,5.29,-0.85,-0.41,0,*7B
1500429989.76,37704,17.56,74542.3,5.29,-0.85,-0.41,0,*7C
1500429990.97,37705,17.56,74544.5,5.29,-0.85,-0.41,0,*7D
1500429992.16,37706,17.56,74540.8,5.29,-0.81,-0.41,0,*7A
1500429993.39,37707,17.56,74542.8,5.31,-0.85,-0.45,0,*72
1500429994.6,37708,17.56,74540.3,5.29,-0.85,-0.41,0,*70
1500429995.79,37709,17.56,74546.8,5.29,-0.81,-0.41,0,*75
1500429996.99,37710,17.56,74540.5,5.31,-0.77,-0.33,0,*78
1500429998.2,37711,17.56,74542.8,5.31,-0.77,-0.29,0,*72
1500429999.4,37712,17.56,74544.5,5.31,-0.69,-0.33,0,*75
1500430000.61,37713,17.56,74540.0,5.31,-0.69,-0.33,0,*74
1500430001.82,37714,17.56,74544.5,5.31,-0.77,-0.33,0,*7C
1500430003.03,37715,17.56,74546.3,5.31,-0.69,-0.33,0,*72
1500430004.21,37716,17.56,74542.0,5.29,-0.69,-0.33,0,*78
1500430005.41,37717,17.56,74542.0,5.31,-0.69,-0.33,0,*70
1500430006.59,37718,17.56,74540.8,5.29,-0.77,-0.33,0,*79
1500430007.8,37719,17.56,74540.8,5.31,-0.69,-0.33,0,*7E
1500430008.98,37720,17.56,74540.5,5.29,-0.77,-0.33,0,*72
1500430010.16,37721,17.56,74542.8,5.29,-0.65,-0.33,0,*70
1500430011.34,37722,17.56,74546.0,5.29,-0.77,-0.33,0,*70
1500430012.52,37723,17.56,74540.5,5.29,-0.69,-0.33,0,*7E
1500430013.73,37724,17.56,74540.8,5.31,-0.69,-0.33,0,*70
1500430014.94,37725,17.56,74540.0,5.31,-0.69,-0.33,0,*71
1500430016.12,37726,17.56,74540.5,5.29,-0.69,-0.33,0,*7B
1500430017.3,37727,17.56,74540.5,5.29,-0.69,-0.33,0,*7A
1500430018.48,37728,17.56,74542.0,5.29,-0.65,-0.33,0,*79
1500430019.69,37729,17.56,74540.5,5.31,-0.69,-0.33,0,*7D
1500430020.9,37730,17.56,74546.3,5.31,-0.69,-0.33,0,*75
1500430022.07,37731,17.56,74542.5,5.29,-0.69,-0.29,0,*76
1500430023.28,37732,17.56,74542.3,5.31,-0.65,-0.33,0,*7B
1500430024.45,37733,17.56,74542.8,5.29,-0.57,-0.29,0,*79
1500430025.66,37734,17.56,74542.5,5.31,-0.65,-0.33,0,*7D
1500430026.86,37735,17.56,74546.0,5.31,-0.65,-0.29,0,*77
1500430028.07,37736,17.56,74542.3,5.31,-0.57,-0.33,0,*7E
1500430029.27,37737,17.56,74542.0,5.31,-0.65,-0.29,0,*75
1500430030.48,37738,17.56,74544.3,5.31,-0.57,-0.33,0,*70
1500430031.68,37739,17.56,74542.5,5.31,-0.57,-0.29,0,*7A
1500430032.88,37740,17.56,74538.3,5.31,-0.57,-0.29,0,*74
1500430034.05,37741,17.56,74542.8,5.29,-0.53,-0.29,0,*78
1500430035.23,37742,17.56,74540.3,5.29,-0.53,-0.29,0,*7B
1500430036.4,37743,17.56,74542.0,5.29,-0.45,-0.29,0,*7D
1500430037.58,37744,17.56,74540.0,5.29,-0.53,-0.33,0,*76
1500430038.81,37745,17.56,74542.8,5.31,-0.45,-0.23,0,*78
1500430040.03,37746,17.56,74542.8,5.31,-0.45,-0.23,0,*7B
1500430041.24,37747,17.56,74542.3,5.31,-0.45,-0.19,0,*73
1500430042.47,37748,17.56,74544.0,5.31,-0.53,-0.23,0,*72
1500430043.69,37749,17.56,74542.0,5.31,-0.45,-0.23,0,*74
1500430044.89,37750,17.56,74542.8,5.29,-0.53,-0.23,0,*72
1500430046.1,37751,17.56,74544.0,5.31,-0.45,-0.33,0,*7C
1500430047.31,37752,17.56,74540.0,5.29,-0.41,-0.23,0,*73
1500430048.48,37753,17.56,74540.0,5.29,-0.45,-0.29,0,*7C
1500430049.68,37754,17.56,74540.5,5.31,-0.45,-0.29,0,*72
1500430050.88,37755,17.56,74540.0,5.29,-0.45,-0.23,0,*70
1500430052.08,37756,17.56,74540.3,5.31,-0.45,-0.29,0,*70
1500430053.28,37757,17.56,74538.8,5.31,-0.45,-0.33,0,*7A
1500430054.48,37758,17.56,74542.3,5.31,-0.45,-0.29,0,*7E
1500430055.66,37759,17.56,74542.0,5.29,-0.53,-0.29,0,*71
1500430056.86,37760,17.56,74540.0,5.29,-0.45,-0.23,0,*76
1500430058.03,37761,17.56,74540.5,5.29,-0.45,-0.29,0,*7D
1500430059.21,37762,17.56,74540.5,5.29,-0.45,-0.33,0,*75
1500430060.41,37763,17.56,74546.0,5.31,-0.41,-0.29,0,*72
1500430061.62,37764,17.56,74540.0,5.29,-0.41,-0.23,0,*76
1500430062.84,37765,17.56,74542.5,5.31,-0.33,-0.23,0,*7B
1500430064.02,37766,17.56,74546.0,5.29,-0.33,-0.19,0,*78
1500430065.24,37767,17.56,74542.8,5.31,-0.33,-0.23,0,*79
1500430066.44,37768,17.56,74540.5,5.29,-0.33,-0.23,0,*7F
1500430067.64,37769,17.56,74540.5,5.31,-0.33,-0.29,0,*7D
1500430068.87,37770,17.56,74544.3,5.31,-0.41,-0.23,0,*7A
1500430070.04,37771,17.56,74542.3,5.29,-0.33,-0.19,0,*7E
1500430071.24,37772,17.56,74540.5,5.29,-0.33,-0.23,0,*74
1500430072.44,37773,17.56,74542.0,5.31,-0.33,-0.29,0,*76
1500430073.67,37774,17.56,74540.5,5.31,-0.41,-0.23,0,*7E
1500430074.87,37775,17.56,74542.8,5.29,-0.33,-0.23,0,*73
1500430076.09,37776,17.56,74542.0,5.31,-0.33,-0.23,0,*79
1500430077.29,37777,17.56,74542.0,5.31,-0.33,-0.19,0,*71
1500430078.49,37778,17.56,74542.0,5.29,-0.33,-0.23,0,*7E
1500430079.69,37779,17.56,74540.3,5.31,-0.33,-0.29,0,*7C
1500430080.88,37780,17.56,74542.8,5.29,-0.33,-0.23,0,*79
1500430082.09,37781,17.56,74540.8,5.31,-0.33,-0.19,0,*78
1500430083.29,37782,17.56,74544.8,5.31,-0.33,-0.19,0,*7B
1500430084.49,37783,17.56,74544.3,5.29,-0.33,-0.23,0,*7A
1500430085.71,37784,17.56,74542.0,5.31,-0.33,-0.23,0,*74
1500430086.93,37785,17.56,74544.5,5.31,-0.23,-0.29,0,*7E
1500430088.16,37786,17.56,74540.0,5.31,-0.29,-0.23,0,*7D
1500430089.38,37787,17.56,74540.8,5.29,-0.23,-0.23,0,*7F
1500430090.58,37788,17.56,74546.8,5.29,-0.23,-0.29,0,*7A
1500430091.75,37789,17.56,74542.3,5.29,-0.29,-0.19,0,*72
1500430092.96,37790,17.56,74540.8,5.31,-0.29,-0.19,0,*73
1500430094.18,37791,17.56,74544.0,5.29,-0.23,-0.23,0,*78
1500430095.38,37792,17.56,74542.5,5.29,-0.23,-0.19,0,*72
1500430096.6,37793,17.56,74542.5,5.29,-0.23,-0.23,0,*7A
1500430097.8,37794,17.56,74542.8,5.29,-0.29,-0.23,0,*77
1500430099.03,37795,17.56,74540.8,5.29,-0.23,-0.23,0,*7C
1500430100.22,37796,17.56,74540.5,5.29,-0.29,-0.23,0,*75
1500430101.45,37797,17.56,74540.0,5.31,-0.23,-0.19,0,*7E
1500430102.65,37798,17.56,74542.8,5.29,-0.23,-0.19,0,*78
1500430103.84,37799,17.56,74540.8,5.29,-0.19,-0.19,0,*70
1500430105.06,37800,17.56,74540.5,5.29,-0.23,-0.23,0,*7F
1500430106.28,37801,17.56,74540.5,5.29,-0.23,-0.23,0,*7E
1500430107.51,37802,17.56,74542.3,5.25,-0.23,-0.23,0,*71
1500430108.71,37803,17.56,74542.5,5.29,-0.23,-0.19,0,*75
1500430109.91,37804,17.56,74540.0,5.29,-0.19,-0.23,0,*72
1500430111.12,37805,17.56,74542.0,5.29,-0.19,-0.23,0,*73